sat.trackr.live / text

‹ back to catalog

STARLINK-37421

NORAD 68821 · 2026-089V

PAYLOAD ACTIVE UNKNOWN

§ Identity

Operator
Country
US
Launch date
2026-04-23
Launch site
AFWTR
Launch vehicle
Mass (kg)
RCS (m²)

Purposes: comms

External: N2YO · Heavens-Above · Gunter

§ Orbital elements

Epoch: 2026-05-25T02:33:31.574016Z

Period
91.42 min
Inclination
97.2844°
Eccentricity
0.0002329
Mean motion
15.75167504 rev/d
Perigee alt
342.6 km
Apogee alt
345.7 km
Semi-major
6,722.3 km
B*
1.3150e-3
RAAN
351.7714°
Arg perigee
76.9622°
Mean anomaly
283.1903°
Rev number
506

§ Raw data

STARLINK-374211 68821U 26089V   26145.10661544  .00200499  00000+0  13150-2 0  99902 68821  97.2844 351.7714 0002329  76.9622 283.1903 15.75167504  5065

JSON: /api/v1/satellites/68821 · /tle

For live sub-satellite position, see the globe view (requires WebGL).

§ Visibility from observer

Set your observer location to see the next 7 days of passes ≥ 10°. The values pass through the URL so the page stays shareable.

No JS? Fill the form by hand. The geolocation button needs JavaScript.